Poplar Bluff, MO

12:06 PM CDT on September 17, 2019 (GMT -0500)
Poplar Bluff Municipal

Weather History for KPOF - May, 2019

Change the Weather History Date:

Friday, May 3, 2019

  Actual Average Record
Temperature  
Mean Temperature 65 °F -  
Max Temperature 70 °F 73 °F 99 °F (1955)
Min Temperature 61 °F 49 °F 34 °F (1967)
Growing Degree Days 15 (Base 50)    
Moisture  
Dew Point 63 °F    
Average Humidity 91    
Maximum Humidity 100    
Minimum Humidity 78    
Precipitation  
Precipitation 0.00 in - - ()
Sea Level Pressure  
Sea Level Pressure 29.97 in    
Wind  
Wind Speed 6 mph (ENE)    
Max Wind Speed 9 mph    
Max Gust Speed -    
Visibility 9 miles    
Events      
Averages and records for this station are not official NWS values.
T = Trace of Precipitation, MM = Missing Value Source: NWS Daily Summary

Daily Weather History Graph

Daily Weather History Graph

Search for Another Location

Airport or City:

Astronomy

May. 03, 2019 Rise Set
Actual Time 6:05 AM CDT 7:51 PM CDT
Civil Twilight 5:37 AM CDT 8:19 PM CDT
Nautical Twilight 5:03 AM CDT 8:53 PM CDT
Astronomical Twilight 4:27 AM CDT 9:29 PM CDT
Moon 5:42 AM CDT (5/3) 6:42 PM CDT (5/3)
Length of Visible Light 14h 42m
Length of Day
13h 46m
Waning Crescent, 2% of the Moon is Illuminated
May 3
Waning Crescent
May 4
New
May 11
First Quarter
May 18
Full
May 26
Last Quarter

Hourly Weather History & Observations

Time (CDT) Temp. Dew Point Humidity Pressure Visibility Wind Dir Wind Speed Gust Speed Precip Events Conditions
12:53 AM 64.0 °F 63.0 °F 96% 29.96 in 10.0 mi NW 8.1 mph - N/A   Overcast
1:53 AM 64.0 °F 64.0 °F 100% 29.95 in 10.0 mi NW 9.2 mph - N/A   Overcast
2:26 AM 64.0 °F 63.0 °F 96% 29.96 in 10.0 mi NNW 8.1 mph - N/A   Overcast
2:36 AM 64.0 °F 63.0 °F 96% 29.96 in 10.0 mi NNW 6.9 mph - N/A   Overcast
2:44 AM 64.0 °F 63.0 °F 96% 29.95 in 10.0 mi NNW 5.8 mph - N/A   Overcast
2:53 AM 64.0 °F 63.0 °F 96% 29.94 in 10.0 mi North 6.9 mph - N/A   Overcast
3:29 AM 64.0 °F 63.0 °F 96% 29.95 in 10.0 mi NNW 8.1 mph - N/A   Overcast
3:53 AM 64.0 °F 63.0 °F 96% 29.96 in 10.0 mi NNW 8.1 mph - N/A   Overcast
4:53 AM 63.0 °F 63.0 °F 100% 29.96 in 8.0 mi NNW 9.2 mph - N/A   Overcast
5:53 AM 62.1 °F 61.0 °F 96% 29.98 in 7.0 mi NNW 8.1 mph - N/A   Overcast
6:53 AM 61.0 °F 61.0 °F 100% 30.01 in 4.0 mi NNW 5.8 mph - N/A   Overcast
7:53 AM 61.0 °F 60.1 °F 97% 30.02 in 6.0 mi North 8.1 mph - N/A   Overcast
8:53 AM 63.0 °F 61.0 °F 93% 30.02 in 8.0 mi NE 8.1 mph - N/A   Overcast
9:53 AM 64.0 °F 61.0 °F 90% 30.01 in 9.0 mi NE 4.6 mph - N/A   Overcast
10:46 AM 64.9 °F 61.0 °F 87% 30.03 in 9.0 mi ESE 3.5 mph - N/A   Overcast
10:53 AM 64.9 °F 61.0 °F 87% 30.03 in 10.0 mi East 4.6 mph - N/A   Overcast
11:53 AM 66.0 °F 62.1 °F 87% 30.02 in 9.0 mi ESE 4.6 mph - N/A   Overcast
12:07 PM 66.0 °F 62.1 °F 87% 30.02 in 9.0 mi ESE 5.8 mph - N/A   Overcast
12:53 PM 66.9 °F 62.1 °F 84% 30.01 in 10.0 mi SE 4.6 mph - N/A   Overcast
1:41 PM 66.9 °F 62.1 °F 84% 30.02 in 10.0 mi SSE 4.6 mph - N/A   Overcast
1:53 PM 66.0 °F 62.1 °F 87% 30.01 in 10.0 mi Calm Calm - N/A   Overcast
2:20 PM 66.0 °F 63.0 °F 90% 30.00 in 10.0 mi SSE 4.6 mph - N/A   Overcast
2:49 PM 66.2 °F 62.6 °F 88% 30.00 in 9.0 mi South 4.6 mph - N/A   Overcast
2:53 PM 66.9 °F 63.0 °F 87% 29.99 in 9.0 mi Calm Calm - N/A   Overcast
3:25 PM 66.9 °F 63.0 °F 87% 29.98 in 9.0 mi Calm Calm - N/A   Overcast
3:42 PM 66.9 °F 63.0 °F 87% 29.97 in 9.0 mi Calm Calm - N/A   Overcast
3:53 PM 68.0 °F 63.0 °F 84% 29.96 in 9.0 mi North - - N/A   Scattered Clouds
4:28 PM 68.0 °F 63.0 °F 84% 29.96 in 10.0 mi SSE 3.5 mph - N/A   Mostly Cloudy
4:53 PM 69.1 °F 62.1 °F 78% 29.95 in 10.0 mi Calm Calm - N/A   Mostly Cloudy
5:53 PM 69.1 °F 63.0 °F 81% 29.94 in 10.0 mi SE 4.6 mph - N/A   Mostly Cloudy
6:04 PM 69.8 °F 64.4 °F 83% 29.95 in 10.0 mi SSE 3.5 mph - N/A   Partly Cloudy
6:53 PM 69.1 °F 63.0 °F 81% 29.94 in 10.0 mi Calm Calm - N/A   Mostly Cloudy
7:53 PM 68.0 °F 64.9 °F 90% 29.93 in 8.0 mi Calm Calm - N/A   Mostly Cloudy
8:09 PM 66.9 °F 64.9 °F 93% 29.94 in 8.0 mi Calm Calm - N/A   Scattered Clouds
8:31 PM 66.0 °F 64.9 °F 96% 29.94 in 7.0 mi Calm Calm - N/A   Overcast
8:53 PM 66.9 °F 64.9 °F 93% 29.94 in 10.0 mi ESE 3.5 mph - N/A   Overcast
9:45 PM 66.9 °F 64.0 °F 90% 29.93 in 10.0 mi East 5.8 mph - N/A   Overcast
9:53 PM 66.9 °F 64.0 °F 90% 29.92 in 10.0 mi East 4.6 mph - N/A   Overcast
10:21 PM 66.9 °F 64.0 °F 90% 29.93 in 10.0 mi ESE 6.9 mph - N/A   Overcast
10:53 PM 66.0 °F 64.0 °F 93% 29.91 in 9.0 mi SE 5.8 mph - N/A   Overcast
11:53 PM 64.9 °F 64.0 °F 97% 29.90 in 10.0 mi SSE 6.9 mph - 0.00 in   Mostly Cloudy